Location: Newark
(7.0858°N, 171.3717°E)
Time: 05:07:36
(UTC+00:00)

Vanguard 2 - Pass Details

Date: 25 November 2020
Orbit: 553 x 2937 km, 32.9° (Epoch: 26 January)

Event Time Altitude Azimuth Distance (km) Brightness Sun altitude
Rises 09:54:09 0° 265° (W) 4,921 12.2 -51.8°
Reaches altitude 10° 09:58:07 10° 250° (WSW) 4,310 11.8 -52.7°
Maximum altitude 10:07:04 23° 204° (SSW) 4,068 11.3 -54.7°
Drops below altitude 10° 10:18:35 10° 160° (SSE) 5,608 11.9 -57.2°
Sets 10:25:01 0° 146° (SSE) 6,770 12.3 -58.6°
